Tracking 20228 objects as of 17-Jan-2020
HD Live streaming from Space Station
objects crossing your sky now

SL-8 DEB

Track SL-8 DEB now!
10-day predictions


NORAD ID: 21212
Int'l Code: 1991-009BF
Perigee: 1,469.5 km
Apogee: 1,845.2 km
Inclination: 74.2 °
Period: 119.3 minutes
Semi major axis: 8028 km
RCS: 0.1545 m2 (medium)
Launch date: February 12, 1991
Source: Commonwealth of Independent States (former USSR) (CIS)
Launch site: PLESETSK MISSILE AND SPACE COMPLEX (PKMTR)

Note: This is SATELLITE DEBRIS
aabbcc
Your satellite tracking list
Your tracking list is empty




NASA's NSSDC Master Catalog

Two Line Element Set (TLE):
1 21212U 91009BF  20016.56980829 -.00000314 +00000-0 -31412-2 0  9996
2 21212 074.1621 303.8764 0233947 263.1055 272.6848 12.06873653268949
Source of the keplerian elements: AFSPC